This is the latest recevied weather packets stored in our database for station/object LZ1BAB-WX. If no packets are shown the sender has not sent any weather packets the latest 1 day(s).
| Time | Temp. | Humidity | Pressure | Rain* | Wind** | Luminosity | Snow |
|---|---|---|---|---|---|---|---|
| 1778059386 | 23.33° C | 41% | 1016 hPa | 0 mm | - | 669 W/m² | - |
| 1778059266 | 23.33° C | 43% | 1015.8 hPa | 0 mm | - | 667 W/m² | - |
| 1778059146 | 22.78° C | 42% | 1015.9 hPa | 0 mm | - | 664 W/m² | - |
| 1778059026 | 23.33° C | 43% | 1015.9 hPa | 0 mm | - | 660 W/m² | - |
| 1778058906 | 22.78° C | 43% | 1016 hPa | 0 mm | - | 657 W/m² | - |
| 1778058306 | 22.78° C | 45% | 1016.1 hPa | 0 mm | - | 645 W/m² | - |
| 1778057945 | 22.78° C | 43% | 1016 hPa | 0 mm | - | 634 W/m² | - |
| 1778057705 | 22.22° C | 47% | 1016.1 hPa | 0 mm | - | 551 W/m² | - |
| 1778057465 | 22.22° C | 46% | 1016 hPa | 0 mm | - | 602 W/m² | - |
| 1778057225 | 22.22° C | 46% | 1015.9 hPa | 0 mm | - | 617 W/m² | - |
| 1778056985 | 21.67° C | 45% | 1016.1 hPa | 0 mm | - | 609 W/m² | - |
| 1778055545 | 20.56° C | 49% | 1016 hPa | 0 mm | - | 434 W/m² | - |
| 1778055186 | 20.56° C | 52% | 1016.4 hPa | 0 mm | - | 534 W/m² | - |
| 1778055066 | 20.56° C | 51% | 1016.2 hPa | 0 mm | - | 532 W/m² | - |
| 1778054946 | 20.56° C | 52% | 1016.2 hPa | 0 mm | - | 529 W/m² | - |
| 1778054826 | 20.56° C | 54% | 1016.2 hPa | 0 mm | - | 524 W/m² | - |
| 1778054705 | 20.56° C | 52% | 1016.5 hPa | 0 mm | - | 520 W/m² | - |
| 1778054585 | 20° C | 53% | 1016.3 hPa | 0 mm | - | 516 W/m² | - |
| 1778054106 | 19.44° C | 53% | 1016.4 hPa | 0 mm | - | 503 W/m² | - |
| 1778053386 | 19.44° C | 53% | 1016.5 hPa | 0 mm | - | 477 W/m² | - |
| 1778053265 | 19.44° C | 49% | 1016.2 hPa | 0 mm | - | 436 W/m² | - |
| 1778053145 | 19.44° C | 48% | 1016.2 hPa | 0 mm | - | 290 W/m² | - |
| 1778053025 | 19.44° C | 52% | 1016.4 hPa | 0 mm | - | 465 W/m² | - |
| 1778052905 | 19.44° C | 53% | 1016.4 hPa | 0 mm | - | 463 W/m² | - |
| 1778052785 | 19.44° C | 50% | 1016.5 hPa | 0 mm | - | 458 W/m² | - |
* Rain latest hour (hover to see other rain measurements)
** Current wind speed in m/s (hover to see current wind gust speed)